Location: Cheadle
(51.0146°N, 113.5417°W)
Time: 11:58:05
(UTC+00:00)

Oscar 11 - Visible Passes

Search period start: 05 December 2023 00:00
Search period end: 15 December 2023 00:00
Orbit: 605 x 617 km, 97.7° (Epoch: 04 December)

Date Brightness Start Highest point End Pass type
(mag) Time Alt. Az. Time Alt. Az. Time Alt. Az.
07 Dec 10.0 00:04:07 10° WSW 00:06:28 14° W 00:08:50 10° NW visible
08 Dec 10.4 00:20:31 10° W 00:21:15 10° W 00:21:59 10° WNW visible
14 Dec 10.1 00:10:40 10° WSW 00:12:33 13° W 00:14:26 10° WNW visible
